Change the Weather History Date:

Sunday, November 17, 2013

  Actual Average Record
Temperature  
Mean Temperature 72 °F -  
Max Temperature 91 °F - - ()
Min Temperature 54 °F - - ()
Cooling Degree Days 8    
Growing Degree Days 22 (Base 50)    
Moisture  
Dew Point 13 °F    
Average Humidity 9    
Maximum Humidity 20    
Minimum Humidity 4    
Precipitation  
Precipitation 0.00 in - - ()
Sea Level Pressure  
Sea Level Pressure 30.08 in    
Wind  
Wind Speed 5 mph ()    
Max Wind Speed 12 mph    
Max Gust Speed 23 mph    
T = Trace of Precipitation, MM = Missing Value Source: Averaged Metar Reports

Daily Weather History Graph

Daily Weather History Graph

Search for Another Location

Airport or City:

Trip Planner

Search our weather history database for the weather conditions in past years. The results will help you decide how hot, cold, wet, or windy it might be!

Date:

Astronomy

Nov. 17, 2013 Rise Set
Actual Time 5:59 AM WAST 7:13 PM WAST
Civil Twilight 5:35 AM WAST 7:37 PM WAST
Nautical Twilight 5:06 AM WAST 8:06 PM WAST
Astronomical Twilight 4:37 AM WAST 8:36 PM WAST
Moon 7:13 PM WAST (11/17) 5:46 AM WAST (11/17)
Length of Visible Light 14h 02m
Length of Day
13h 13m
Full, 100% of the Moon is Illuminated
Nov 17
Full
Nov 17
Full
Nov 25
Last Quarter
Dec 3
New
Dec 9
First Quarter

Hourly Weather History & Observations

Time (WAST) Temp. Dew Point Humidity Pressure Visibility Wind Dir Wind Speed Gust Speed Precip Events Conditions
12:00 AM 62.6 °F 1.4 °F 9% 30.15 in - East 3.5 mph - N/A   Unknown
1:00 AM 59.0 °F -0.4 °F 9% 30.12 in - East 4.6 mph - N/A   Unknown
2:00 AM 59 °F 0 °F 4%  in - East 4.6 mph - -  
2:00 AM 59.0 °F 1.4 °F 10% 30.12 in - East 4.6 mph - N/A   Unknown
3:00 AM 59.0 °F 1.4 °F 10% 30.12 in - ESE 4.6 mph - N/A   Unknown
4:00 AM 57.2 °F 3.2 °F 11% 30.09 in - ESE 5.8 mph - N/A   Unknown
5:00 AM 58 °F -1 °F 4%  in - ESE 4.6 mph - -  
5:00 AM 57.2 °F -0.4 °F 10% 30.09 in - ESE 4.6 mph - N/A   Unknown
6:00 AM 53.6 °F 5.0 °F 14% 30.12 in - ESE 3.5 mph - N/A   Unknown
7:00 AM 60.8 °F 10.4 °F 14% 30.12 in - East 4.6 mph - N/A   Unknown
8:00 AM 70 °F 15 °F 5%  in 47 mi ENE 2.3 mph - -  
8:00 AM 68.0 °F 15.8 °F 13% 30.12 in - ENE 1.2 mph - N/A   Clear
10:00 AM 75.2 °F 8.6 °F 8% 30.12 in - NW 3.5 mph - N/A   Clear
11:00 AM 81 °F 12 °F 4%  in 47 mi WNW 5.8 mph - -  
12:00 PM 82.4 °F 10.4 °F 7% 30.09 in - WNW 6.9 mph - N/A   Clear
1:00 PM 86.0 °F 12.2 °F 6% 30.06 in - NW 4.6 mph - N/A   Clear
2:00 PM 88 °F 20 °F 4%  in 47 mi West 10.4 mph - -   Scattered Clouds
2:00 PM 87.8 °F 21.2 °F 9% 30.04 in - West 10.4 mph 23.0 mph N/A   Clear
3:00 PM 87.8 °F 21.2 °F 9% 30.04 in - WNW 11.5 mph - N/A   Clear
4:00 PM 87.8 °F 21.2 °F 9% 30.01 in - West 8.1 mph - N/A   Clear
5:00 PM 89 °F 23 °F 4%  in 47 mi West 10.4 mph - -   Scattered Clouds
5:00 PM 87.8 °F 24.8 °F 10% 30.01 in - West 9.2 mph - N/A   Clear
6:00 PM 86.0 °F 19.4 °F 9% 30.01 in - WSW 9.2 mph - N/A   Unknown
7:00 PM 82.4 °F 15.8 °F 8% 30.04 in - West 9.2 mph - N/A   Unknown
8:00 PM 79 °F 18 °F 4%  in - WSW 9.2 mph - -  
8:00 PM 78.8 °F 19.4 °F 11% 30.04 in - WSW 8.1 mph - N/A   Unknown
9:00 PM 75.2 °F 19.4 °F 12% 30.06 in - WSW 5.8 mph - N/A   Unknown
10:00 PM 73.4 °F 23.0 °F 15% 30.06 in - SW 4.6 mph - N/A   Unknown
11:00 PM 71 °F 26 °F 9%  in - SSW 3.5 mph - -  
11:00 PM 69.8 °F 26.6 °F 20% 30.06 in - SSW 2.3 mph - N/A   Unknown